GW5184 Weather Reports


time (UTC)temp
C
wind
direction
speed
KPH
gust
KPH
rain 1hr
cm
rain 24hr
cm
rain mn
cm
humidity
%
barometer
mb
20260502130745 27 181 0.0 0.0 0.00 0.00 0.00 86 1010.2
20260502130242 27 181 0.0 0.0 0.00 0.00 0.00 86 1010.1
20260502123729 27 179 0.0 1.6 0.00 0.00 0.00 85 1009.8
20260502123225 27 180 0.0 0.0 0.00 0.00 0.00 85 1009.5
20260502122722 27 179 0.0 0.0 0.00 0.00 0.00 85 1009.6
20260502122218 27 182 0.0 0.0 0.00 0.00 0.00 85 1009.4
20260502121717 27 182 0.0 0.0 0.00 0.00 0.00 85 1009.6
20260502121214 27 182 0.0 0.0 0.00 0.00 0.00 84 1009.4
20260502120710 27 185 0.0 0.0 0.00 0.00 0.00 84 1009.1
20260502120207 27 185 0.0 0.0 0.00 0.00 0.00 84 1009.0
20260502115705 27 184 0.0 0.0 0.00 0.00 0.00 84 1009.1
20260502115201 27 184 0.0 0.0 0.00 0.00 0.00 84 1008.7
20260502114657 27 183 0.0 0.0 0.00 0.00 0.00 84 1008.8
20260502114154 27 183 0.0 0.0 0.00 0.00 0.00 84 1008.6
20260502113652 27 188 0.0 0.0 0.00 0.00 0.00 84 1008.7
20260502113150 27 199 0.0 0.0 0.00 0.00 0.00 84 1008.6
20260502112647 27 198 0.0 0.0 0.00 0.00 0.00 83 1008.5
20260502112145 27 199 0.0 0.0 0.00 0.00 0.00 83 1008.5
20260502111642 27 198 0.0 0.0 0.00 0.00 0.00 83 1008.5
20260502111139 27 198 0.0 0.0 0.00 0.00 0.00 82 1008.4
20260502110637 27 192 0.0 0.0 0.00 0.00 0.00 83 1008.4
20260502110134 27 191 0.0 0.0 0.00 0.00 0.00 83 1008.3
20260502105631 27 222 0.0 0.0 0.00 0.00 0.00 82 1008.3
20260502105129 28 221 0.0 0.0 0.00 0.00 0.00 82 1008.3
20260502104626 28 188 0.0 1.6 0.00 0.00 0.00 81 1008.2
20260502104123 28 182 0.0 0.0 0.00 0.00 0.00 82 1008.2
20260502103620 28 176 0.0 0.0 0.00 0.00 0.00 81 1008.3
20260502103119 28 119 0.0 0.0 0.00 0.00 0.00 80 1008.3
20260502102615 28 196 0.0 0.0 0.00 0.00 0.00 81 1008.2
20260502102112 28 197 0.0 0.0 0.00 0.00 0.00 80 1008.2
20260502101610 28 160 0.0 0.0 0.00 0.00 0.00 79 1008.3
20260502101108 29 188 0.0 0.0 0.00 0.00 0.00 78 1008.0
20260502100606 29 71 0.0 3.2 0.00 0.00 0.00 74 1007.9
20260502100104 29 165 0.0 0.0 0.00 0.00 0.00 76 1007.8
20260502091038 30 303 0.0 0.0 0.00 0.00 0.00 69 1007.3
20260502090535 30 215 0.0 3.2 0.00 0.00 0.00 70 1007.5
20260502071429 35 292 1.6 3.2 0.00 0.00 0.00 57 1007.0
20260502070927 35 163 3.2 4.8 0.00 0.00 0.00 56 1007.1
20260502070425 35 21 1.6 3.2 0.00 0.00 0.00 56 1007.2
20260502065924 35 0 0.0 1.6 0.00 0.00 0.00 55 1007.2
20260502065422 35 67 1.6 3.2 0.00 0.00 0.00 56 1007.3
20260502064919 35 231 0.0 3.2 0.00 0.00 0.00 57 1007.2
20260502064417 35 281 1.6 1.6 0.00 0.00 0.00 54 1007.6
20260502063914 35 133 3.2 4.8 0.00 0.00 0.00 55 1007.4
20260502063411 33 296 1.6 3.2 0.00 0.00 0.00 60 1007.3
20260502062909 33 207 1.6 1.6 0.00 0.00 0.00 59 1007.7
20260502062406 33 66 3.2 4.8 0.00 0.00 0.00 58 1007.7
20260502061905 34 49 1.6 3.2 0.00 0.00 0.00 58 1007.9
20260502061402 34 74 0.0 4.8 0.00 0.00 0.00 58 1007.7
20260502060858 35 206 1.6 4.8 0.00 0.00 0.00 57 1007.9
20260502060353 36 189 1.6 4.8 0.00 0.00 0.00 54 1007.9
20260502055851 35 8 0.0 3.2 0.00 0.00 0.00 57 1008.2
20260502055348 35 204 1.6 3.2 0.00 0.00 0.00 56 1008.4
20260502054848 36 34 1.6 4.8 0.00 0.00 0.00 54 1008.5
20260502054345 35 201 0.0 1.6 0.00 0.00 0.00 56 1008.3
20260502053842 35 176 1.6 1.6 0.00 0.00 0.00 58 1008.4
20260502053339 34 23 3.2 4.8 0.00 0.00 0.00 59 1008.5
20260502052837 35 224 1.6 3.2 0.00 0.00 0.00 58 1008.3
20260502052335 35 264 1.6 6.4 0.00 0.00 0.00 58 1008.5
20260502051832 34 95 1.6 4.8 0.00 0.00 0.00 59 1008.6
20260502051331 34 210 0.0 1.6 0.00 0.00 0.00 59 1008.7
20260502050827 34 163 1.6 3.2 0.00 0.00 0.00 59 1008.9
20260502050324 34 184 3.2 4.8 0.00 0.00 0.00 59 1008.7
20260502045821 35 18 1.6 3.2 0.00 0.00 0.00 57 1008.9
20260502045317 34 197 0.0 0.0 0.00 0.00 0.00 58 1008.9
20260502044814 33 288 1.6 3.2 0.00 0.00 0.00 61 1009.0
20260502044310 35 234 0.0 1.6 0.00 0.00 0.00 60 1009.0
20260502043808 35 212 1.6 4.8 0.00 0.00 0.00 59 1008.9
20260502043305 34 160 0.0 3.2 0.00 0.00 0.00 57 1009.1
20260502042805 33 26 1.6 3.2 0.00 0.00 0.00 61 1009.3
20260502042305 33 170 0.0 1.6 0.00 0.00 0.00 67 1009.3
20260502041800 32 30 1.6 1.6 0.00 0.00 0.00 67 1009.5
20260502041257 32 163 1.6 3.2 0.00 0.00 0.00 68 1009.6
20260502040754 33 84 0.0 1.6 0.00 0.00 0.00 66 1009.8
20260502040251 33 345 0.0 3.2 0.00 0.00 0.00 67 1009.7
20260502035747 34 164 1.6 3.2 0.00 0.00 0.00 66 1009.7
20260502035244 32 231 1.6 4.8 0.00 0.00 0.00 68 1009.9
20260502034741 31 287 1.6 6.4 0.00 0.00 0.00 73 1010.0
20260502034239 31 245 1.6 6.4 0.00 0.00 0.00 73 1009.9
20260502033737 31 312 1.6 6.4 0.00 0.00 0.00 73 1010.0
20260502033235 32 154 3.2 6.4 0.00 0.00 0.00 71 1009.9
20260502032731 32 139 3.2 3.2 0.00 0.00 0.00 69 1009.8
20260502032227 33 153 0.0 6.4 0.00 0.00 0.00 68 1009.9
20260502031725 33 344 0.0 0.0 0.00 0.00 0.00 59 1009.9
20260502031223 33 355 1.6 3.2 0.00 0.00 0.00 60 1009.8
20260502030721 33 54 0.0 0.0 0.00 0.00 0.00 61 1009.7
20260502030219 32 58 0.0 3.2 0.00 0.00 0.00 63 1009.8
20260502025715 32 358 1.6 3.2 0.00 0.00 0.00 64 1009.8
20260502025214 32 168 0.0 0.0 0.00 0.00 0.00 64 1009.7
20260502024711 32 142 1.6 4.8 0.00 0.00 0.00 65 1009.8
20260502024209 32 134 3.2 6.4 0.00 0.00 0.00 64 1009.9
20260502023707 32 315 1.6 4.8 0.00 0.00 0.00 64 1009.8
20260502023204 33 158 4.8 6.4 0.00 0.00 0.00 62 1009.8
20260502022701 33 149 3.2 11.3 0.00 0.00 0.00 62 1009.9
20260502022158 32 99 6.4 9.7 0.00 0.00 0.00 63 1010.0
20260502021655 33 150 3.2 4.8 0.00 0.00 0.00 64 1010.0
20260502021152 32 351 0.0 3.2 0.00 0.00 0.00 66 1009.9
20260502020649 33 141 0.0 3.2 0.00 0.00 0.00 65 1009.9
20260502020146 33 136 0.0 1.6 0.00 0.00 0.00 64 1009.9
20260502015644 34 145 3.2 4.8 0.00 0.00 0.00 64 1010.0
20260502015140 34 188 0.0 1.6 0.00 0.00 0.00 64 1009.9
20260502014638 33 138 0.0 1.6 0.00 0.00 0.00 65 1010.2
20260502014135 33 165 0.0 1.6 0.00 0.00 0.00 67 1010.1
20260502013631 33 73 0.0 4.8 0.00 0.00 0.00 66 1010.3
20260502013126 33 157 0.0 1.6 0.00 0.00 0.00 67 1010.2
20260502012624 33 90 0.0 3.2 0.00 0.00 0.00 67 1010.1
20260502012122 32 246 0.0 1.6 0.00 0.00 0.00 69 1010.3
20260502011618 32 164 0.0 3.2 0.00 0.00 0.00 68 1010.4
20260502011114 32 33 1.6 1.6 0.00 0.00 0.00 67 1010.2
20260502010612 33 344 0.0 1.6 0.00 0.00 0.00 68 1010.2
20260502010108 32 125 0.0 1.6 0.00 0.00 0.00 69 1010.2
20260502005606 32 149 0.0 0.0 0.00 0.00 0.00 70 1010.5
20260502005103 31 214 0.0 1.6 0.00 0.00 0.00 71 1010.4
20260502004559 31 275 0.0 1.6 0.00 0.00 0.00 73 1010.3
20260502004056 31 122 0.0 0.0 0.00 0.00 0.00 75 1010.4
20260502003554 31 346 0.0 0.0 0.00 0.00 0.00 75 1010.5
20260502003050 31 61 0.0 0.0 0.00 0.00 0.00 73 1010.7
20260502002547 31 142 0.0 1.6 0.00 0.00 0.00 73 1010.4
20260502002044 31 215 0.0 1.6 0.00 0.00 0.00 76 1010.5
20260502001542 31 206 0.0 0.0 0.00 0.00 0.00 74 1010.4
20260502001039 31 200 0.0 3.2 0.00 0.00 0.00 75 1010.2
20260502000537 31 248 0.0 0.0 0.00 0.00 0.00 76 1010.4
20260502000034 30 212 0.0 0.0 0.00 0.00 0.00 78 1010.4
20260501235529 31 192 0.0 0.0 0.00 0.00 0.00 76 1010.2
20260501235025 30 155 0.0 0.0 0.00 0.00 0.00 78 1010.5
20260501234521 29 164 0.0 1.6 0.00 0.00 0.00 79 1010.1
20260501234020 28 42 0.0 1.6 0.00 0.00 0.00 80 1010.3
20260501233517 28 164 0.0 0.0 0.00 0.00 0.00 83 1010.1
20260501233014 28 169 0.0 0.0 0.00 0.00 0.00 84 1010.2
20260501232510 28 251 0.0 0.0 0.00 0.00 0.00 86 1010.1
20260501232008 28 251 0.0 0.0 0.00 0.00 0.00 86 1010.0
20260501231506 27 251 0.0 0.0 0.00 0.00 0.00 87 1010.2
20260501231004 27 156 0.0 0.0 0.00 0.00 0.00 86 1010.2
20260501230502 27 156 0.0 0.0 0.00 0.00 0.00 87 1010.1
20260501225959 27 157 0.0 0.0 0.00 0.00 0.00 87 1009.9
20260501225457 27 156 0.0 0.0 0.00 0.00 0.00 87 1009.9
20260501224952 27 156 0.0 0.0 0.00 0.00 0.00 87 1009.9
20260501224450 27 154 0.0 0.0 0.00 0.00 0.00 88 1009.7
20260501223947 27 153 0.0 0.0 0.00 0.00 0.00 88 1009.5
20260501223443 27 144 0.0 0.0 0.00 0.00 0.00 88 1009.5
20260501222939 27 138 0.0 0.0 0.00 0.00 0.00 88 1009.5
20260501222436 26 140 0.0 0.0 0.00 0.00 0.00 89 1009.4
20260501221932 26 278 0.0 0.0 0.00 0.00 0.00 90 1009.3
20260501221430 26 172 0.0 0.0 0.00 0.00 0.00 90 1009.2
20260501220928 26 172 0.0 0.0 0.00 0.00 0.00 90 1009.4
20260501220425 26 172 0.0 0.0 0.00 0.00 0.00 91 1009.2
20260501215921 26 172 0.0 0.0 0.00 0.00 0.00 91 1009.0
20260501215418 26 172 0.0 0.0 0.00 0.00 0.00 92 1009.2
20260501214913 25 169 0.0 0.0 0.00 0.00 0.00 92 1009.1
20260501214408 25 169 0.0 0.0 0.00 0.00 0.00 92 1009.0
20260501213904 25 169 0.0 0.0 0.00 0.00 0.00 92 1009.0
20260501213401 25 169 0.0 0.0 0.00 0.00 0.00 92 1009.0
20260501212857 25 169 0.0 0.0 0.00 0.00 0.00 92 1008.6
20260501212354 25 169 0.0 0.0 0.00 0.00 0.00 92 1008.9
20260501211851 25 169 0.0 0.0 0.00 0.00 0.00 92 1008.8
20260501211348 25 169 0.0 0.0 0.00 0.00 0.00 92 1008.7
20260501210845 25 169 0.0 0.0 0.00 0.00 0.00 91 1008.8
20260501210342 25 169 0.0 0.0 0.00 0.00 0.00 91 1008.9
20260501205839 25 169 0.0 0.0 0.00 0.00 0.00 91 1008.6
20260501205336 25 169 0.0 0.0 0.00 0.00 0.00 91 1008.9
20260501204832 25 169 0.0 0.0 0.00 0.00 0.00 91 1008.9
20260501204329 25 169 0.0 0.0 0.00 0.00 0.00 91 1008.9
20260501203825 25 169 0.0 0.0 0.00 0.00 0.00 90 1008.8
20260501203323 25 169 0.0 0.0 0.00 0.00 0.00 90 1008.6
20260501202820 25 169 0.0 0.0 0.00 0.00 0.00 90 1008.5
20260501202317 25 169 0.0 0.0 0.00 0.00 0.00 89 1008.7
20260501201814 25 169 0.0 0.0 0.00 0.00 0.00 89 1008.6
20260501201310 25 169 0.0 0.0 0.00 0.00 0.00 89 1008.5
20260501200807 25 169 0.0 0.0 0.00 0.00 0.00 89 1008.5
20260501200304 25 169 0.0 0.0 0.00 0.00 0.00 89 1008.5
20260501195801 25 169 0.0 0.0 0.00 0.00 0.00 89 1008.5
20260501195257 25 169 0.0 0.0 0.00 0.00 0.00 89 1008.4
20260501194753 25 169 0.0 0.0 0.00 0.00 0.00 89 1008.5
20260501194249 25 169 0.0 0.0 0.00 0.00 0.00 89 1008.2
20260501193746 25 169 0.0 0.0 0.00 0.00 0.00 89 1008.4
20260501193244 25 169 0.0 0.0 0.00 0.00 0.00 89 1008.3
20260501192741 25 169 0.0 0.0 0.00 0.00 0.00 89 1008.3
20260501192238 25 169 0.0 0.0 0.00 0.00 0.00 89 1008.2
20260501191735 25 169 0.0 0.0 0.00 0.00 0.00 89 1008.2
20260501191233 25 169 0.0 0.0 0.00 0.00 0.00 89 1008.2
20260501190729 25 169 0.0 0.0 0.00 0.00 0.00 89 1008.4
20260501190225 25 169 0.0 0.0 0.00 0.00 0.00 89 1008.2
20260501185721 25 169 0.0 0.0 0.00 0.00 0.00 88 1008.1
20260501185217 25 169 0.0 0.0 0.00 0.00 0.00 89 1008.3
20260501184713 25 169 0.0 0.0 0.00 0.00 0.00 88 1008.2
20260501184208 25 169 0.0 0.0 0.00 0.00 0.00 88 1008.2
20260501183704 26 169 0.0 0.0 0.00 0.00 0.00 88 1008.5
20260501183201 26 169 0.0 0.0 0.00 0.00 0.00 87 1008.2
20260501182657 26 169 0.0 0.0 0.00 0.00 0.00 87 1008.4
20260501182154 26 169 0.0 0.0 0.00 0.00 0.00 87 1008.5
20260501181652 26 169 0.0 0.0 0.00 0.00 0.00 86 1008.7
20260501181149 26 170 0.0 0.0 0.00 0.00 0.00 87 1008.7
20260501180647 26 181 0.0 0.0 0.00 0.00 0.00 87 1008.8
20260501180143 26 181 0.0 1.6 0.00 0.00 0.00 87 1008.7
20260501175639 26 214 0.0 1.6 0.00 0.00 0.00 88 1008.7
20260501175137 26 145 0.0 0.0 0.00 0.00 0.00 87 1008.8
20260501174633 26 145 0.0 0.0 0.00 0.00 0.00 88 1008.9
20260501174131 26 144 0.0 0.0 0.00 0.00 0.00 88 1008.8
20260501173628 26 144 0.0 0.0 0.00 0.00 0.00 88 1009.0
20260501173125 26 144 0.0 0.0 0.00 0.00 0.00 88 1009.0
20260501172621 26 145 0.0 0.0 0.00 0.00 0.00 88 1009.0
20260501172116 26 145 0.0 0.0 0.00 0.00 0.00 88 1009.2
20260501171612 26 145 0.0 0.0 0.00 0.00 0.00 88 1009.4
20260501171109 26 145 0.0 0.0 0.00 0.00 0.00 88 1009.3
20260501170606 26 145 0.0 0.0 0.00 0.00 0.00 88 1009.3
20260501165601 26 157 0.0 0.0 0.00 0.00 0.00 87 1009.5
20260501165058 26 157 0.0 0.0 0.00 0.00 0.00 88 1009.6
20260501164556 26 157 0.0 0.0 0.00 0.00 0.00 88 1009.6
20260501164052 26 157 0.0 0.0 0.00 0.00 0.00 88 1009.7
20260501163549 26 157 0.0 0.0 0.00 0.00 0.00 88 1009.8
20260501163046 26 157 0.0 0.0 0.00 0.00 0.00 88 1009.9
20260501162542 26 157 0.0 0.0 0.00 0.00 0.00 88 1009.9
20260501162039 26 185 0.0 0.0 0.00 0.00 0.00 88 1009.9
20260501161536 26 185 0.0 0.0 0.00 0.00 0.00 88 1009.9
20260501161032 26 185 0.0 0.0 0.00 0.00 0.00 88 1010.2
20260501160530 26 185 0.0 0.0 0.00 0.00 0.00 89 1010.1
20260501160027 26 180 0.0 0.0 0.00 0.00 0.00 89 1010.1
20260501155523 26 356 0.0 0.0 0.00 0.00 0.00 89 1010.2
20260501155020 26 254 0.0 0.0 0.00 0.00 0.00 90 1010.1
20260501154518 26 253 0.0 0.0 0.00 0.00 0.00 90 1010.3
20260501154014 26 253 0.0 0.0 0.00 0.00 0.00 90 1010.3
20260501153512 26 253 0.0 0.0 0.00 0.00 0.00 90 1010.4
20260501153008 26 254 0.0 0.0 0.00 0.00 0.00 89 1010.4
20260501152506 26 254 0.0 1.6 0.00 0.00 0.00 89 1010.4
20260501152003 26 218 0.0 0.0 0.00 0.00 0.00 89 1010.4
20260501151459 26 226 0.0 0.0 0.00 0.00 0.00 89 1010.3
20260501150956 26 226 0.0 0.0 0.00 0.00 0.00 89 1010.4
20260501150451 26 226 0.0 0.0 0.00 0.00 0.00 88 1010.3
20260501145948 26 236 0.0 0.0 0.00 0.00 0.00 88 1010.4
20260501145444 26 237 0.0 0.0 0.00 0.00 0.00 88 1010.5
20260501144943 26 202 0.0 0.0 0.00 0.00 0.00 88 1010.7
20260501144438 26 202 0.0 0.0 0.00 0.00 0.00 88 1010.6
20260501143934 26 227 0.0 0.0 0.00 0.00 0.00 87 1010.8
20260501143431 26 142 0.0 0.0 0.00 0.00 0.00 87 1010.5
20260501142927 26 142 0.0 0.0 0.00 0.00 0.00 86 1010.5